Flight Track Log - Related Links

Times and Time Zones

All times are in EST time to prevent confusion due to time zone crossing. See the AFL150 flight status page for this flight to view local times or setup timezone preferences in your user account.

Time Position Orientation Groundspeed Altitude Reporting Facility
EST Latitude Longitude Course Direction KTS MPH feet Rate Location/Type
Sun 08:13:00 AM 56.0739 37.2064 319° Northwest  Level FlightAware Approximate
Sun 08:14:00 AM 56.1654 37.0605 318° Northwest  Level FlightAware Approximate
Sun 08:15:00 AM 56.2567 36.9139 318° Northwest  Level FlightAware Approximate
Sun 08:16:00 AM 56.3479 36.7666 318° Northwest  Level FlightAware Approximate
Sun 08:17:00 AM 56.4388 36.6186 318° Northwest  Level FlightAware Approximate
Sun 08:18:00 AM 56.5296 36.4699 318° Northwest  Level FlightAware Approximate
Sun 08:19:00 AM 56.6202 36.3205 318° Northwest  Level FlightAware Approximate
Sun 08:20:00 AM 56.7107 36.1703 318° Northwest  Level FlightAware Approximate
Sun 08:21:00 AM 56.8009 36.0195 318° Northwest  Level FlightAware Approximate
Sun 08:22:00 AM 56.8910 35.8679 317° Northwest  Level FlightAware Approximate
Sun 08:23:00 AM 56.9809 35.7155 317° Northwest  Level FlightAware Approximate
Sun 08:24:00 AM 57.0706 35.5625 317° Northwest  Level FlightAware Approximate
Sun 08:25:00 AM 57.1601 35.4087 317° Northwest  Level FlightAware Approximate
Sun 08:26:00 AM 57.2494 35.2541 317° Northwest  Level FlightAware Approximate
Sun 08:27:00 AM 57.3385 35.0988 317° Northwest  Level FlightAware Approximate
Sun 08:28:00 AM 57.4275 34.9428 317° Northwest  Level FlightAware Approximate
Sun 08:29:00 AM 57.5162 34.7860 317° Northwest  Level FlightAware Approximate
Sun 08:30:00 AM 57.6061 34.6222 314° West  Level FlightAware Approximate
Sun 08:31:00 AM 57.6906 34.4566 314° West  Level FlightAware Approximate
Sun 08:32:00 AM 57.7748 34.2902 314° West  Level FlightAware Approximate
Sun 08:33:00 AM 57.8589 34.1231 313° West  Level FlightAware Approximate
Sun 08:34:00 AM 57.9427 33.9551 313° West  Level FlightAware Approximate
Sun 08:35:00 AM 58.0263 33.7864 313° West  Level FlightAware Approximate
Sun 08:36:00 AM 58.1096 33.6169 313° West  Level FlightAware Approximate
Sun 08:37:00 AM 58.1927 33.4466 313° West  Level FlightAware Approximate
Sun 08:38:00 AM 58.2757 33.2755 313° West  Level FlightAware Approximate
Sun 08:39:00 AM 58.3583 33.1036 313° West  Level FlightAware Approximate
Sun 08:39:21 AM 56.3062 33.9145 313° West 448 516 34,000  Level FlightAware ADS-B
Sun 08:46:34 AM 56.7660 30.5883 303° West 448 516 34,000  Level FlightAware ADS-B
Sun 08:47:34 AM 56.8390 30.3951 305° West 451 519 34,000  Level FlightAware ADS-B
Sun 08:48:18 AM 56.8827 30.2769 304° West 451 519 34,000  Level FlightAware ADS-B
Sun 08:49:34 AM 56.9782 30.0156 304° West 453 521 34,000  Level FlightAware ADS-B
Sun 08:50:35 AM 57.0473 29.8249 304° West 457 526 34,000  Level FlightAware ADS-B
Sun 08:51:34 AM 57.1178 29.6290 304° West 459 528 34,000  Level FlightAware ADS-B
Sun 08:52:35 AM 57.1873 29.4343 303° West 463 533 34,000  Level FlightAware ADS-B
Sun 08:53:34 AM 57.2573 29.2365 303° West 466 536 34,000  Level FlightAware ADS-B
Sun 08:54:35 AM 57.3289 29.0330 303° West 467 537 34,000  Level FlightAware ADS-B
Sun 08:55:35 AM 57.3962 28.8399 303° West 467 537 34,000  Level FlightAware ADS-B
Sun 08:56:34 AM 57.4676 28.6331 303° West 471 542 34,000  Level FlightAware ADS-B
Sun 08:57:35 AM 57.5394 28.4236 303° West 474 545 34,000  Level FlightAware ADS-B
Sun 08:58:34 AM 57.6081 28.2215 302° West 476 548 34,000  Level FlightAware ADS-B
Sun 08:59:31 AM 57.6758 28.0207 302° West 478 550 34,000  Level FlightAware ADS-B
Sun 09:00:35 AM 57.7502 27.7982 302° West 480 552 34,000  Level FlightAware ADS-B
Sun 09:01:35 AM 57.8202 27.5871 302° West 480 552 34,000  Level FlightAware ADS-B
Sun 09:02:34 AM 57.8717 27.3599 293° West 482 555 34,000  Level FlightAware ADS-B
Sun 09:03:35 AM 57.9192 27.1228 291° West 484 557 34,000  Level FlightAware ADS-B
Sun 09:04:34 AM 57.9646 26.8956 291° West 484 557 34,000  Level FlightAware ADS-B
Sun 09:05:35 AM 58.0122 26.6551 291° West 482 555 34,000  Level FlightAware ADS-B
Sun 09:06:35 AM 58.0587 26.4168 290° West 483 556 34,000  Level FlightAware ADS-B
Sun 09:07:34 AM 58.1037 26.1833 290° West 484 557 34,000  Level FlightAware ADS-B
Sun 09:08:35 AM 58.1502 25.9396 290° West 487 560 34,000  Level FlightAware ADS-B
Sun 09:09:35 AM 58.1922 25.7164 290° West 485 558 34,000  Level FlightAware ADS-B
Sun 09:10:35 AM 58.2393 25.4638 290° West 483 556 34,000  Level FlightAware ADS-B
Sun 09:11:35 AM 58.2794 25.2456 289° West 484 557 34,000  Level FlightAware ADS-B
Sun 09:12:30 AM 58.3227 25.0066 289° West 483 556 34,000  Level FlightAware ADS-B
Sun 09:13:27 AM 58.3644 24.7741 289° West 482 555 34,000  Level FlightAware ADS-B
Sun 09:14:22 AM 58.3899 24.6303 289° West 481 554 34,000  Level FlightAware ADS-B
Sun 09:15:11 AM 58.4372 24.3520 288° West 481 554 34,000  Level FlightAware ADS-B
Sun 09:28:14 AM 58.8762 21.1753 294° West 479 551 34,000  Level FlightAware ADS-B
Sun 09:28:47 AM 58.8762 21.1753 294° West 481 554 34,000  Level FlightAware ADS-B
Sun 09:29:40 AM 58.9438 20.7621 288° West 483 556 34,000  Level FlightAware ADS-B
Sun 09:30:13 AM 58.9663 20.6263 288° West 484 557 34,000  Level FlightAware ADS-B
Sun 09:30:44 AM 58.9866 20.5012 288° West 485 558 34,000  Level FlightAware ADS-B
Sun 09:31:14 AM 59.0070 20.3762 288° West 484 557 34,000  Level FlightAware ADS-B
Sun 09:31:54 AM 59.0222 20.2818 287° West 484 557 34,000  Level FlightAware ADS-B
Sun 09:32:34 AM 59.0524 20.0921 287° West 484 557 34,000  Level FlightAware ADS-B
Sun 09:33:15 AM 59.0795 19.9198 287° West 483 556 34,000  Level FlightAware ADS-B
Sun 09:33:28 AM 59.0953 19.8191 287° West 481 554 34,000  Level FlightAware ADS-B
Sun 09:34:15 AM 59.1181 19.6732 287° West 483 556 34,000  Level FlightAware ADS-B
Sun 09:34:29 AM 59.1345 19.5671 287° West 480 552 34,000  Level FlightAware ADS-B
Sun 09:35:15 AM 59.1570 19.4203 287° West 481 554 34,000  Level FlightAware ADS-B
Sun 09:35:29 AM 59.1722 19.3207 287° West 478 550 34,000  Level FlightAware ADS-B
Sun 09:36:15 AM 59.1924 19.1873 287° West 479 551 34,000  Level FlightAware ADS-B
Sun 09:36:29 AM 59.2098 19.0719 286° West 477 549 34,000  Level FlightAware ADS-B
Sun 09:37:17 AM 59.2327 18.9182 286° West 479 551 34,000  Level FlightAware ADS-B
Sun 09:37:58 AM 59.2576 18.7485 286° West 480 552 34,000  Level FlightAware ADS-B
Sun 09:38:36 AM 59.2807 18.5908 286° West 479 551 34,000  Level FlightAware ADS-B
Sun 09:39:17 AM 59.3049 18.4221 286° West 479 551 34,000  Level FlightAware ADS-B
Sun 09:39:58 AM 59.3291 18.2530 286° West 480 552 34,000  Level FlightAware ADS-B
Sun 09:40:38 AM 59.3530 18.0841 286° West 480 552 34,000  Level FlightAware ADS-B
Sun 09:41:18 AM 59.3773 17.9102 285° West 480 552 34,000  Level FlightAware ADS-B
Sun 09:41:56 AM 59.3968 17.7711 285° West 480 552 34,000  Level FlightAware ADS-B
Sun 09:42:14 AM 59.4154 17.6365 285° West 475 547 34,000  Level FlightAware ADS-B
Sun 09:42:29 AM 59.4240 17.5732 285° West 475 547 34,000  Level FlightAware ADS-B
Sun 09:43:17 AM 59.4430 17.4321 285° West 475 547 34,000  Level FlightAware ADS-B
Sun 09:43:58 AM 59.4675 17.2495 285° West 475 547 34,000  Level FlightAware ADS-B
Sun 09:44:14 AM 59.4828 17.1341 285° West 471 542 34,000  Level FlightAware ADS-B
Sun 09:44:58 AM 59.5007 16.9985 285° West 473 544 34,000  Level FlightAware ADS-B
Sun 09:45:38 AM 59.5226 16.8307 284° West 474 545 34,000  Level FlightAware ADS-B
Sun 09:46:18 AM 59.5440 16.6646 284° West 473 544 34,000  Level FlightAware ADS-B
Sun 09:46:55 AM 59.5639 16.5092 284° West 472 543 34,000  Level FlightAware ADS-B
Sun 09:47:38 AM 59.5863 16.3321 284° West 473 544 34,000  Level FlightAware ADS-B
Sun 09:48:36 AM 59.6170 16.0857 284° West 474 545 34,000  Level FlightAware ADS-B
Sun 09:49:15 AM 59.6325 15.9587 284° West 474 545 34,000  Level FlightAware ADS-B
Sun 09:49:59 AM 59.6647 15.6945 284° West 472 543 34,000  Level FlightAware ADS-B
Sun 09:50:30 AM 59.6800 15.5663 283° West 471 542 34,000  Level FlightAware ADS-B
Sun 09:51:14 AM 59.7017 15.3824 283° West 468 539 34,000  Level FlightAware ADS-B
Sun 09:51:45 AM 59.7168 15.2537 283° West 466 536 34,000  Level FlightAware ADS-B
Sun 09:52:29 AM 59.7383 15.0673 283° West 466 536 34,000  Level FlightAware ADS-B
Sun 09:53:00 AM 59.7527 14.9410 283° West 466 536 34,000  Level FlightAware ADS-B
Sun 09:53:45 AM 59.7741 14.7520 283° West 466 536 34,000  Level FlightAware ADS-B
Sun 09:54:30 AM 59.7946 14.5670 283° West 466 536 34,000  Level FlightAware ADS-B
Sun 09:55:00 AM 59.8089 14.4375 282° West 465 535 34,000  Level FlightAware ADS-B
Sun 09:55:44 AM 59.8288 14.2549 282° West 464 534 34,000  Level FlightAware ADS-B
Sun 09:56:15 AM 59.8423 14.1281 282° West 463 533 34,000  Level FlightAware ADS-B
Sun 09:57:00 AM 59.8622 13.9420 282° West 463 533 34,000  Level FlightAware ADS-B
Sun 09:57:30 AM 59.8754 13.8162 282° West 461 531 34,000  Level FlightAware ADS-B
Sun 09:58:15 AM 59.8949 13.6285 282° West 460 529 34,000  Level FlightAware ADS-B
Sun 09:58:46 AM 59.9076 13.5038 282° West 460 529 34,000  Level FlightAware ADS-B
Sun 09:59:29 AM 59.9262 13.3207 281° West 459 528 34,000  Level FlightAware ADS-B
Sun 10:00:01 AM 59.9389 13.1925 281° West 458 527 34,000  Level FlightAware ADS-B
Sun 10:00:45 AM 59.9625 13.0106 285° West 458 527 34,000  Level FlightAware ADS-B
Sun 10:01:15 AM 59.9806 12.8884 287° West 457 526 34,000  Level FlightAware ADS-B
Sun 10:02:00 AM 60.0072 12.7089 287° West 456 525 34,000  Level FlightAware ADS-B
Sun 10:02:30 AM 60.0251 12.5877 286° West 456 525 34,000  Level FlightAware ADS-B
Sun 10:03:00 AM 60.0428 12.4664 286° West 456 525 34,000  Level FlightAware ADS-B
Sun 10:03:30 AM 60.0604 12.3450 286° West 456 525 34,000  Level FlightAware ADS-B
Sun 10:04:15 AM 60.0862 12.1657 286° West 454 522 34,000  Level FlightAware ADS-B
Sun 10:04:46 AM 60.1040 12.0403 286° West 455 524 34,000  Level FlightAware ADS-B
Sun 10:05:30 AM 60.1297 11.8589 286° West 456 525 34,000  Level FlightAware ADS-B
Sun 10:06:15 AM 60.1554 11.6742 286° West 458 527 34,000  Level FlightAware ADS-B
Sun 10:06:46 AM 60.1727 11.5490 286° West 459 528 34,000  Level FlightAware ADS-B
Sun 10:07:17 AM 60.1900 11.4225 285° West 459 528 34,000  Level FlightAware ADS-B
Sun 10:08:01 AM 60.2151 11.2382 285° West 461 531 34,000  Level FlightAware ADS-B
Sun 10:08:31 AM 60.2317 11.1142 285° West 463 533 34,000  Level FlightAware ADS-B
Sun 10:09:01 AM 60.2481 10.9907 285° West 463 533 34,000  Level FlightAware ADS-B
Sun 10:09:46 AM 60.2729 10.8035 285° West 462 532 34,000  Level FlightAware ADS-B
Sun 10:10:16 AM 60.2892 10.6784 285° West 463 533 34,000  Level FlightAware ADS-B
Sun 10:10:47 AM 60.3057 10.5508 285° West 462 532 34,000  Level FlightAware ADS-B
Sun 10:11:29 AM 60.3284 10.3743 285° West 463 533 34,000  Level FlightAware ADS-B
Sun 10:12:02 AM 60.3455 10.2384 284° West 462 532 34,000  Level FlightAware ADS-B
Sun 10:12:46 AM 60.3687 10.0533 284° West 463 533 34,000  Level FlightAware ADS-B
Sun 10:13:46 AM 60.3997 9.8027 284° West 457 526 34,000  Level FlightAware ADS-B
Sun 10:14:16 AM 60.4151 9.6774 284° West 456 525 34,000  Level FlightAware ADS-B
Sun 10:14:59 AM 60.4365 9.4996 284° West 456 525 34,000  Level FlightAware ADS-B
Sun 10:15:31 AM 60.4524 9.3659 284° West 455 524 34,000  Level FlightAware ADS-B
Sun 10:16:16 AM 60.4742 9.1821 284° West 454 522 34,000  Level FlightAware ADS-B
Sun 10:16:46 AM 60.4890 9.0550 283° West 454 522 34,000  Level FlightAware ADS-B
Sun 10:17:30 AM 60.5099 8.8747 283° West 450 518 34,000  Level FlightAware ADS-B
Sun 10:18:01 AM 60.5242 8.7491 283° West 452 520 34,000  Level FlightAware ADS-B
Sun 10:18:31 AM 60.5383 8.6257 283° West 451 519 34,000  Level FlightAware ADS-B
Sun 10:19:02 AM 60.5529 8.4955 283° West 448 516 34,000  Level FlightAware ADS-B
Sun 10:19:46 AM 60.5727 8.3171 283° West 446 513 34,000  Level FlightAware ADS-B
Sun 10:23:08 AM 60.6546 7.5512 282° West 427 491 34,000 25 Level FlightAware ADS-B (EGBP)
Sun 10:23:47 AM 60.6705 7.3984 282° West 424 488 34,100 684 Climbing FlightAware ADS-B (EGBP)
Sun 10:24:27 AM 60.6860 7.2464 282° West 418 481 34,900 1,037 Climbing FlightAware ADS-B (EGBP)
Sun 10:25:08 AM 60.7020 7.0875 282° West 418 481 35,500 835 Climbing FlightAware ADS-B (EGBP)
Sun 10:25:46 AM 60.7169 6.9375 282° West 420 483 36,000 390 Climbing FlightAware ADS-B (EGBP)
Sun 10:26:25 AM 60.7315 6.7888 281° West 429 494 36,000  Level FlightAware ADS-B (EGBP)
Sun 10:27:05 AM 60.7470 6.6287 281° West 425 489 36,000  Level FlightAware ADS-B (EGBP)
Sun 10:27:46 AM 60.7625 6.4675 281° West 425 489 36,000  Level FlightAware ADS-B (EGBP)
Sun 10:28:28 AM 60.7781 6.3022 281° West 424 488 36,000  Level FlightAware ADS-B (EGBP)
Sun 10:29:08 AM 60.7927 6.1461 281° West 425 489 36,000  Level FlightAware ADS-B (EGBP)
Sun 10:29:43 AM 60.8056 6.0064 281° West 426 490 36,000  Level FlightAware ADS-B (EGBP)
Sun 10:30:27 AM 60.8214 5.8308 281° West 426 490 36,000  Level FlightAware ADS-B (EGBP)
Sun 10:31:08 AM 60.8357 5.6710 280° West 422 486 36,000  Level FlightAware ADS-B (EGBP)
Sun 10:31:47 AM 60.8494 5.5168 280° West 418 481 36,000  Level FlightAware ADS-B (EGBP)
Sun 10:34:00 AM 60.8951 4.9673 280° West  Level Estimated
Sun 10:35:00 AM 60.9149 4.7189 279° West  Level Estimated
Sun 10:36:00 AM 60.9344 4.4701 279° West  Level Estimated
Sun 10:37:00 AM 60.9533 4.2211 279° West  Level Estimated
Sun 10:38:00 AM 60.9718 3.9718 279° West  Level Estimated
Sun 10:39:00 AM 60.9899 3.7222 279° West  Level Estimated
Sun 10:40:00 AM 61.0074 3.4723 278° West  Level Estimated
Sun 10:41:00 AM 61.0246 3.2222 278° West  Level Estimated
Sun 10:42:00 AM 61.0412 2.9718 278° West  Level Estimated
Sun 10:43:00 AM 61.0574 2.7211 278° West  Level Estimated
Sun 10:44:00 AM 61.0731 2.4701 277° West  Level Estimated
Sun 10:45:00 AM 61.0884 2.2190 277° West  Level Estimated
Sun 10:46:00 AM 61.1032 1.9676 277° West  Level Estimated
Sun 10:47:00 AM 61.1175 1.7159 277° West  Level Estimated
Sun 10:48:00 AM 61.1314 1.4640 277° West  Level Estimated
Sun 10:49:00 AM 61.1448 1.2119 276° West  Level Estimated
Sun 10:50:00 AM 61.1577 0.9596 276° West  Level Estimated
Sun 10:51:00 AM 61.1702 0.7071 276° West  Level Estimated
Sun 10:52:00 AM 61.1821 0.4544 276° West  Level Estimated
Sun 10:53:00 AM 61.1936 0.2016 276° West  Level Estimated
Sun 10:54:00 AM 61.2047 -0.0515 275° West  Level Estimated
Sun 10:55:00 AM 61.2152 -0.3048 275° West  Level Estimated
Sun 10:56:00 AM 61.2253 -0.5582 275° West  Level Estimated
Sun 10:57:00 AM 61.2350 -0.8117 275° West  Level Estimated
Sun 10:58:00 AM 61.2441 -1.0655 274° West  Level Estimated
Sun 10:59:00 AM 61.2528 -1.3193 274° West  Level Estimated
Sun 11:00:00 AM 61.2610 -1.5733 274° West  Level Estimated
Sun 11:01:00 AM 61.2687 -1.8275 274° West  Level Estimated
Sun 11:02:00 AM 61.2760 -2.0817 274° West  Level Estimated
Sun 11:03:00 AM 61.2827 -2.3361 273° West  Level Estimated
Sun 11:04:00 AM 61.2890 -2.5905 273° West  Level Estimated
Sun 11:05:00 AM 61.2948 -2.8451 273° West  Level Estimated
Sun 11:06:00 AM 61.3002 -3.0998 273° West  Level Estimated
Sun 11:07:00 AM 61.3050 -3.3545 272° West  Level Estimated
Sun 11:08:00 AM 61.3094 -3.6093 272° West  Level Estimated
Sun 11:09:00 AM 61.3134 -3.8642 272° West  Level Estimated
Sun 11:10:00 AM 61.3168 -4.1191 272° West  Level Estimated
Sun 11:11:00 AM 61.3197 -4.3741 271° West  Level Estimated
Sun 11:12:00 AM 61.3222 -4.6292 271° West  Level Estimated
Sun 11:13:00 AM 61.3242 -4.8843 271° West  Level Estimated
Sun 11:14:00 AM 61.3257 -5.1393 271° West  Level Estimated
Sun 11:15:00 AM 61.3268 -5.3945 271° West  Level Estimated
Sun 11:16:00 AM 61.3274 -5.6496 270° West  Level Estimated
Sun 11:17:00 AM 61.3274 -5.9048 270° West  Level Estimated
Sun 11:18:00 AM 61.3270 -6.1599 270° West  Level Estimated
Sun 11:19:00 AM 61.3262 -6.4150 270° West  Level Estimated
Sun 11:20:00 AM 61.3248 -6.6701 269° West  Level Estimated
Sun 11:21:00 AM 61.3230 -6.9252 269° West  Level Estimated
Sun 11:22:00 AM 61.3207 -7.1803 269° West  Level Estimated
Sun 11:23:00 AM 61.3179 -7.4353 269° West  Level Estimated
Sun 11:24:00 AM 61.3147 -7.6902 269° West  Level Estimated
Sun 11:25:00 AM 61.3109 -7.9452 268° West  Level Estimated
Sun 11:26:00 AM 61.3067 -8.2000 268° West  Level Estimated
Sun 11:27:00 AM 61.3020 -8.4548 268° West  Level Estimated
Sun 11:28:00 AM 61.2969 -8.7095 268° West  Level Estimated
Sun 11:29:00 AM 61.2912 -8.9641 267° West  Level Estimated
Sun 11:30:00 AM 61.2851 -9.2186 267° West  Level Estimated
Sun 11:31:00 AM 61.2785 -9.4730 267° West  Level Estimated
Sun 11:32:00 AM 61.2714 -9.7273 267° West  Level Estimated
Sun 11:33:00 AM 61.2639 -9.9814 267° West  Level Estimated
Sun 11:34:00 AM 61.2559 -10.2355 266° West  Level Estimated
Sun 11:35:00 AM 61.2474 -10.4894 266° West  Level Estimated
Sun 11:36:00 AM 61.2384 -10.7432 266° West  Level Estimated
Sun 11:37:00 AM 61.2289 -10.9968 266° West  Level Estimated
Sun 11:38:00 AM 61.2190 -11.2502 265° West  Level Estimated
Sun 11:39:00 AM 61.2086 -11.5035 265° West  Level Estimated
Sun 11:40:00 AM 61.1978 -11.7567 265° West  Level Estimated
Sun 11:41:00 AM 61.1864 -12.0096 265° West  Level Estimated
Sun 11:42:00 AM 61.1746 -12.2624 265° West  Level Estimated
Sun 11:43:00 AM 61.1623 -12.5150 264° West  Level Estimated
Sun 11:44:00 AM 61.1496 -12.7674 264° West  Level Estimated
Sun 11:45:00 AM 61.1364 -13.0195 264° West  Level Estimated
Sun 11:46:00 AM 61.1227 -13.2715 264° West  Level Estimated
Sun 11:47:00 AM 61.1085 -13.5232 263° West  Level Estimated
Sun 11:48:00 AM 61.0939 -13.7747 263° West  Level Estimated
Sun 11:49:00 AM 61.0788 -14.0260 263° West  Level Estimated
Sun 11:50:00 AM 61.0632 -14.2770 263° West  Level Estimated
Sun 11:51:00 AM 61.0472 -14.5278 263° West  Level Estimated
Sun 11:52:00 AM 61.0307 -14.7783 262° West  Level Estimated
Sun 11:53:00 AM 61.0138 -15.0286 262° West  Level Estimated
Sun 11:54:00 AM 60.9964 -15.2785 262° West  Level Estimated
Sun 11:55:00 AM 60.9785 -15.5282 262° West  Level Estimated
Sun 11:56:00 AM 60.9602 -15.7776 261° West  Level Estimated
Sun 11:57:00 AM 60.9414 -16.0268 261° West  Level Estimated
Sun 11:58:00 AM 60.9221 -16.2756 261° West  Level Estimated
Sun 11:59:00 AM 60.9024 -16.5241 261° West  Level Estimated
Sun 12:00:00 PM 60.8823 -16.7724 261° West  Level Estimated
Sun 12:01:00 PM 60.8616 -17.0203 260° West  Level Estimated
Sun 12:02:00 PM 60.8405 -17.2678 260° West  Level Estimated
Sun 12:03:00 PM 60.8190 -17.5151 260° West  Level Estimated
Sun 12:04:00 PM 60.7970 -17.7620 260° West  Level Estimated
Sun 12:05:00 PM 60.7746 -18.0086 260° West  Level Estimated
Sun 12:06:00 PM 60.7517 -18.2548 259° West  Level Estimated
Sun 12:07:00 PM 60.7283 -18.5007 259° West  Level Estimated
Sun 12:08:00 PM 60.7046 -18.7462 259° West  Level Estimated
Sun 12:09:00 PM 60.6803 -18.9913 259° West  Level Estimated
Sun 12:10:00 PM 60.6556 -19.2361 258° West  Level Estimated
Sun 12:11:00 PM 60.6305 -19.4805 258° West  Level Estimated
Sun 12:12:00 PM 60.6049 -19.7245 258° West  Level Estimated
Sun 12:13:00 PM 60.5789 -19.9681 258° West  Level Estimated
Sun 12:14:00 PM 60.5524 -20.2113 258° West  Level Estimated
Sun 12:15:00 PM 60.5255 -20.4541 257° West  Level Estimated
Sun 12:16:00 PM 60.4981 -20.6965 257° West  Level Estimated
Sun 12:17:00 PM 60.4704 -20.9385 257° West  Level Estimated
Sun 12:18:00 PM 60.4421 -21.1801 257° West  Level Estimated
Sun 12:19:00 PM 60.4135 -21.4213 257° West  Level Estimated
Sun 12:20:00 PM 60.3844 -21.6620 256° West  Level Estimated
Sun 12:21:00 PM 60.3549 -21.9023 256° West  Level Estimated
Sun 12:22:00 PM 60.3249 -22.1422 256° West  Level Estimated
Sun 12:23:00 PM 60.2945 -22.3816 256° West  Level Estimated
Sun 12:24:00 PM 60.2637 -22.6205 256° West  Level Estimated
Sun 12:25:00 PM 60.2324 -22.8591 255° West  Level Estimated
Sun 12:26:00 PM 60.2007 -23.0971 255° West  Level Estimated
Sun 12:27:00 PM 60.1687 -23.3347 255° West  Level Estimated
Sun 12:28:00 PM 60.1361 -23.5718 255° West  Level Estimated
Sun 12:29:00 PM 60.1032 -23.8085 254° West  Level Estimated
Sun 12:30:00 PM 60.0698 -24.0447 254° West  Level Estimated
Sun 12:31:00 PM 60.0360 -24.2804 254° West  Level Estimated
Sun 12:32:00 PM 60.0018 -24.5156 254° West  Level Estimated
Sun 12:33:00 PM 59.9672 -24.7503 254° West  Level Estimated
Sun 12:34:00 PM 59.9321 -24.9846 253° West  Level Estimated
Sun 12:35:00 PM 59.8967 -25.2183 253° West  Level Estimated
Sun 12:36:00 PM 59.8608 -25.4515 253° West  Level Estimated
Sun 12:37:00 PM 59.8245 -25.6843 253° West  Level Estimated
Sun 12:38:00 PM 59.7878 -25.9165 253° West  Level Estimated
Sun 12:39:00 PM 59.7507 -26.1482 252° West  Level Estimated
Sun 12:40:00 PM 59.7132 -26.3794 252° West  Level Estimated
Sun 12:41:00 PM 59.6753 -26.6101 252° West  Level Estimated
Sun 12:42:00 PM 59.6370 -26.8402 252° West  Level Estimated
Sun 12:43:00 PM 59.5983 -27.0698 252° West  Level Estimated
Sun 12:44:00 PM 59.5592 -27.2989 251° West  Level Estimated
Sun 12:45:00 PM 59.5196 -27.5275 251° West  Level Estimated
Sun 12:46:00 PM 59.4797 -27.7555 251° West  Level Estimated
Sun 12:47:00 PM 59.4394 -27.9830 251° West  Level Estimated
Sun 12:48:00 PM 59.3987 -28.2099 251° West  Level Estimated
Sun 12:49:00 PM 59.3576 -28.4363 250° West  Level Estimated
Sun 12:50:00 PM 59.3161 -28.6621 250° West  Level Estimated
Sun 12:51:00 PM 59.2742 -28.8874 250° West  Level Estimated
Sun 12:52:00 PM 59.2319 -29.1121 250° West  Level Estimated
Sun 12:53:00 PM 59.1893 -29.3363 250° West  Level Estimated
Sun 12:54:00 PM 59.1463 -29.5599 250° West  Level Estimated
Sun 12:55:00 PM 59.1028 -29.7829 249° West  Level Estimated
Sun 12:56:00 PM 59.0590 -30.0054 249° West  Level Estimated
Sun 12:57:00 PM 59.0148 -30.2273 249° West  Level Estimated
Sun 12:58:00 PM 58.9703 -30.4486 249° West  Level Estimated
Sun 12:59:00 PM 58.9253 -30.6694 249° West  Level Estimated
Sun 01:00:00 PM 58.8800 -30.8896 248° West  Level Estimated
Sun 01:01:00 PM 58.8343 -31.1092 248° West  Level Estimated
Sun 01:02:00 PM 58.7883 -31.3282 248° West  Level Estimated
Sun 01:03:00 PM 58.7418 -31.5466 248° West  Level Estimated
Sun 01:04:00 PM 58.6950 -31.7645 248° West  Level Estimated
Sun 01:05:00 PM 58.6479 -31.9818 247° West  Level Estimated
Sun 01:06:00 PM 58.6003 -32.1984 247° West  Level Estimated
Sun 01:07:00 PM 58.5524 -32.4145 247° West  Level Estimated
Sun 01:08:00 PM 58.5042 -32.6300 247° West  Level Estimated
Sun 01:09:00 PM 58.4556 -32.8449 247° West  Level Estimated
Sun 01:10:00 PM 58.4066 -33.0592 247° West  Level Estimated
Sun 01:11:00 PM 58.3572 -33.2729 246° West  Level Estimated
Sun 01:12:00 PM 58.3075 -33.4861 246° West  Level Estimated
Sun 01:13:00 PM 58.2575 -33.6986 246° West  Level Estimated
Sun 01:14:00 PM 58.2071 -33.9105 246° West  Level Estimated
Sun 01:15:00 PM 58.1564 -34.1218 246° West  Level Estimated
Sun 01:16:00 PM 58.1053 -34.3325 245° Southwest  Level Estimated
Sun 01:17:00 PM 65.0000 -40.0000 261° West 429 494 36,000  Level ETMS Enhanced Traffic Management System
Sun 02:02:00 PM 64.0000 -50.0000 251° West 396 456 36,000  Level ETMS Enhanced Traffic Management System
Sun 02:02:54 PM 64.0000 -50.0000 251° West 396 456 36,000  Level ETMS Enhanced Traffic Management System
Sun 02:17:09 PM 63.1167 -55.1333 245° Southwest 360 414 36,000  Level Gander Center
Sun 02:18:00 PM 63.0209 -55.5045 246° West 396 456 36,000  Level FlightAware Transoceanic
Sun 02:18:09 PM 63.0500 -55.3667 238° Southwest 370 426 36,000  Level Gander Center
Sun 02:19:00 PM 62.9756 -55.7256 246° West 396 456 36,000  Level FlightAware Transoceanic
Sun 02:19:09 PM 63.0167 -55.5500 248° West 370 426 36,000  Level Gander Center
Sun 02:20:00 PM 62.9300 -55.9459 245° Southwest 396 456 36,000  Level FlightAware Transoceanic
Sun 02:20:09 PM 62.9667 -55.7333 239° Southwest 360 414 36,000  Level Gander Center
Sun 02:21:00 PM 62.8840 -56.1655 245° Southwest 396 456 36,000  Level FlightAware Transoceanic
Sun 02:21:09 PM 62.9167 -55.9333 241° Southwest 360 414 36,000  Level Gander Center
Sun 02:22:00 PM 62.8377 -56.3845 245° Southwest 396 456 36,000  Level FlightAware Transoceanic
Sun 02:22:09 PM 62.8833 -56.1167 248° West 360 414 36,000  Level Gander Center
Sun 02:23:09 PM 62.8167 -56.3500 238° Southwest 370 426 36,000  Level Gander Center
Sun 02:24:09 PM 62.7833 -56.5333 248° West 380 437 36,000  Level Gander Center
Sun 02:25:09 PM 62.7333 -56.7167 239° Southwest 370 426 36,000  Level Gander Center
Sun 02:26:09 PM 62.6667 -56.9167 234° Southwest 370 426 36,000  Level Gander Center
Sun 02:27:09 PM 62.6333 -57.1000 248° West 360 414 36,000  Level Gander Center
Sun 02:28:09 PM 62.5667 -57.2833 232° Southwest 360 414 36,000  Level Gander Center
Sun 02:29:09 PM 62.5167 -57.4667 239° Southwest 350 403 36,000  Level Gander Center
Sun 02:30:09 PM 62.4833 -57.6167 244° Southwest 350 403 36,000  Level Gander Center
Sun 02:31:09 PM 62.4333 -57.8000 240° Southwest 340 391 36,000  Level Gander Center
Sun 02:32:09 PM 62.3833 -58.0000 242° Southwest 340 391 36,000  Level Gander Center
Sun 02:37:12 PM 62.1500 -58.7833 238° Southwest 330 380 36,000  Level Montreal Center
Sun 02:38:09 PM 62.1000 -59.0167 245° Southwest 330 380 36,000  Level Gander Center
Sun 02:39:09 PM 62.0667 -59.1667 245° Southwest 330 380 36,000  Level Gander Center
Sun 02:40:09 PM 62.0167 -59.3333 237° Southwest 330 380 36,000 200 Level Gander Center
Sun 02:41:00 PM 61.9649 -59.4629 239° Southwest  Level FlightAware Approximate
Sun 02:41:09 PM 61.9667 -59.5167 240° Southwest 330 380 36,400  Level Gander Center
Sun 02:42:00 PM 61.9167 -59.6257 238° Southwest  Level FlightAware Approximate
Sun 02:42:09 PM 61.9167 -59.6667 235° Southwest 330 380 37,000  Level Gander Center
Sun 02:43:09 PM 61.8667 -59.8333 238° Southwest 330 380 37,000  Level Gander Center
Sun 02:44:09 PM 61.8167 -60.0167 240° Southwest 330 380 37,000  Level Gander Center
Sun 02:45:09 PM 61.7500 -60.1667 227° Southwest 340 391 37,000  Level Gander Center
Sun 02:46:12 PM 61.7167 -60.2500 230° Southwest 330 380 37,000 -146 Level Montreal Center
Sun 02:47:12 PM 61.6333 -60.4667 231° Southwest 400 460 36,700 -350 Descending Montreal Center
Sun 02:48:12 PM 61.6167 -60.5833 253° West 300 345 36,300 -233 Descending Montreal Center
Sun 02:50:12 PM 61.5000 -60.9333 235° Southwest 340 391 36,000 -100 Descending Montreal Center
Sun 02:51:12 PM 61.4667 -61.0667 242° Southwest 330 380 36,000  Level Montreal Center
Sun 02:52:12 PM 61.4167 -61.2333 238° Southwest 330 380 36,000  Level Montreal Center
Sun 02:53:12 PM 61.3667 -61.4000 238° Southwest 330 380 36,000  Level Montreal Center
Sun 02:54:12 PM 61.3000 -61.5500 227° Southwest 330 380 36,000  Level Montreal Center
Sun 02:55:12 PM 61.2667 -61.7167 247° West 330 380 36,000  Level Montreal Center
Sun 02:56:12 PM 61.2000 -61.8833 230° Southwest 330 380 36,000  Level Montreal Center
Sun 02:57:12 PM 61.1500 -62.0167 232° Southwest 330 380 36,000  Level Montreal Center
Sun 02:58:12 PM 61.1000 -62.2167 243° Southwest 340 391 36,000  Level Montreal Center
Sun 02:59:12 PM 61.0500 -62.3500 232° Southwest 340 391 36,000  Level Montreal Center
Sun 03:01:12 PM 60.9500 -62.6667 237° Southwest 340 391 36,000  Level Montreal Center
Sun 03:02:12 PM 60.9000 -62.8667 243° Southwest 350 403 36,000  Level Montreal Center
Sun 03:03:12 PM 60.8167 -63.0333 224° Southwest 370 426 36,000  Level Montreal Center
Sun 03:04:12 PM 60.7667 -63.2167 241° Southwest 350 403 36,000  Level Montreal Center
Sun 03:05:12 PM 60.7167 -63.3833 239° Southwest 350 403 36,000  Level Montreal Center
Sun 03:12:09 PM 60.3167 -64.5667 233° Southwest 370 426 36,000  Level Gander Center
Sun 03:13:12 PM 60.2333 -64.7000 218° Southwest 370 426 36,000  Level Montreal Center
Sun 03:14:00 PM 60.2481 -64.6823 234° Southwest  Level FlightAware Approximate
Sun 03:14:12 PM 60.1833 -64.8833 241° Southwest 370 426 36,000  Level Montreal Center
Sun 03:15:00 PM 60.1941 -64.8276 233° Southwest  Level FlightAware Approximate
Sun 03:15:12 PM 60.1167 -65.0500 231° Southwest 370 426 36,000  Level Montreal Center
Sun 03:16:00 PM 60.1399 -64.9724 233° Southwest  Level FlightAware Approximate
Sun 03:16:12 PM 60.0333 -65.1667 215° Southwest 370 426 36,000  Level Montreal Center
Sun 03:17:00 PM 60.0856 -65.1167 233° Southwest  Level FlightAware Approximate
Sun 03:17:12 PM 59.9667 -65.3333 231° Southwest 370 426 36,000  Level Montreal Center
Sun 03:18:12 PM 59.9000 -65.4500 221° Southwest 370 426 36,000  Level Montreal Center
Sun 03:19:12 PM 59.8167 -65.5833 219° Southwest 370 426 36,000  Level Montreal Center
Sun 03:20:12 PM 59.7500 -65.7333 229° Southwest 370 426 36,000  Level Montreal Center
Sun 03:21:12 PM 59.6500 -65.8667 214° Southwest 370 426 36,000  Level Montreal Center
Sun 03:22:12 PM 59.5833 -66.0167 229° Southwest 370 426 36,000  Level Montreal Center
Sun 03:23:12 PM 59.5000 -66.1333 215° Southwest 380 437 36,000  Level Montreal Center
Sun 03:24:12 PM 59.4333 -66.2667 226° Southwest 380 437 36,000  Level Montreal Center
Sun 03:25:12 PM 59.3333 -66.4167 217° Southwest 380 437 36,000  Level Montreal Center
Sun 03:26:12 PM 59.2667 -66.5333 222° Southwest 380 437 36,000  Level Montreal Center
Sun 03:27:12 PM 59.1833 -66.6833 223° Southwest 380 437 36,000  Level Montreal Center
Sun 03:28:12 PM 59.1000 -66.8167 219° Southwest 390 449 36,000  Level Montreal Center
Sun 03:29:12 PM 59.0167 -66.9333 216° Southwest 390 449 36,000  Level Montreal Center
Sun 03:30:12 PM 58.9333 -67.0833 223° Southwest 390 449 36,000  Level Montreal Center
Sun 03:31:12 PM 58.8500 -67.2000 216° Southwest 400 460 36,000  Level Montreal Center
Sun 03:32:12 PM 58.7667 -67.3500 223° Southwest 400 460 36,000  Level Montreal Center
Sun 03:33:12 PM 58.6667 -67.5167 221° Southwest 400 460 36,000  Level Montreal Center
Sun 03:34:12 PM 58.6000 -67.6167 218° Southwest 400 460 36,000  Level Montreal Center
Sun 03:35:12 PM 58.5000 -67.7833 221° Southwest 400 460 36,000  Level Montreal Center
Sun 03:36:12 PM 58.4167 -67.9333 223° Southwest 410 472 36,000  Level Montreal Center
Sun 03:37:12 PM 58.3167 -68.0500 212° Southwest 410 472 36,000  Level Montreal Center
Sun 03:38:12 PM 58.2333 -68.1833 220° Southwest 420 483 36,000  Level Montreal Center
Sun 03:39:12 PM 58.1833 -68.3000 231° Southwest 390 449 36,000  Level Montreal Center
Sun 03:40:01 PM 58.0833 -68.4167 212° Southwest 460 529 36,000  Level Montreal Center
Sun 03:41:01 PM 57.9667 -68.5667 214° Southwest 430 495 36,000  Level Montreal Center
Sun 03:42:01 PM 57.8833 -68.7167 224° Southwest 430 495 36,000  Level Montreal Center
Sun 03:43:01 PM 57.7833 -68.8167 208° Southwest 430 495 36,000  Level Montreal Center
Sun 03:49:01 PM 57.2000 -69.6167 215° Southwest 430 495 36,000  Level Montreal Center
Sun 03:50:01 PM 57.1000 -69.7333 212° Southwest 430 495 36,000  Level Montreal Center
Sun 03:51:01 PM 57.0167 -69.8667 221° Southwest 430 495 36,000  Level Montreal Center
Sun 03:52:00 PM 57.1413 -69.6807 216° Southwest  Level FlightAware Approximate
Sun 03:52:01 PM 56.9000 -70.0167 215° Southwest 430 495 36,000  Level Montreal Center
Sun 03:53:00 PM 57.0677 -69.7768 215° Southwest  Level FlightAware Approximate
Sun 03:53:01 PM 56.8000 -70.1167 209° Southwest 440 506 36,000  Level Montreal Center
Sun 03:54:00 PM 56.9941 -69.8726 215° Southwest  Level FlightAware Approximate
Sun 03:54:01 PM 56.7167 -70.2500 221° Southwest 440 506 36,000  Level Montreal Center
Sun 03:55:01 PM 56.6000 -70.4000 215° Southwest 440 506 36,000  Level Montreal Center
Sun 03:56:01 PM 56.5000 -70.5000 209° Southwest 440 506 36,000  Level Montreal Center
Sun 03:57:01 PM 56.4000 -70.6333 216° Southwest 440 506 36,000  Level Montreal Center
Sun 03:58:01 PM 56.3000 -70.7667 217° Southwest 440 506 36,000  Level Montreal Center
Sun 03:59:01 PM 56.2000 -70.8833 213° Southwest 440 506 36,000  Level Montreal Center
Sun 04:00:01 PM 56.0833 -71.0167 213° Southwest 440 506 36,000  Level Montreal Center
Sun 04:01:01 PM 55.9833 -71.1167 209° Southwest 430 495 36,000  Level Montreal Center
Sun 04:02:01 PM 55.9000 -71.2500 222° Southwest 440 506 36,000  Level Montreal Center
Sun 04:03:01 PM 55.8000 -71.3500 209° Southwest 440 506 36,000  Level Montreal Center
Sun 04:04:01 PM 55.6833 -71.4833 213° Southwest 440 506 36,000  Level Montreal Center
Sun 04:05:01 PM 55.5833 -71.6167 217° Southwest 440 506 36,000  Level Montreal Center
Sun 04:06:01 PM 55.4833 -71.7167 210° Southwest 440 506 36,000  Level Montreal Center
Sun 04:07:01 PM 55.3667 -71.8500 213° Southwest 440 506 36,000  Level Montreal Center
Sun 04:08:01 PM 55.2833 -71.9667 219° Southwest 440 506 36,000  Level Montreal Center
Sun 04:09:01 PM 55.1833 -72.0667 210° Southwest 440 506 36,000  Level Montreal Center
Sun 04:10:01 PM 55.0667 -72.2000 213° Southwest 440 506 36,000  Level Montreal Center
Sun 04:11:01 PM 54.9667 -72.3167 214° Southwest 440 506 36,000  Level Montreal Center
Sun 04:12:01 PM 54.8500 -72.4500 213° Southwest 440 506 36,000  Level Montreal Center
Sun 04:13:01 PM 54.7500 -72.5500 210° Southwest 440 506 36,000  Level Montreal Center
Sun 04:14:01 PM 54.6667 -72.6667 219° Southwest 440 506 36,000  Level Montreal Center
Sun 04:15:01 PM 54.5500 -72.8000 214° Southwest 440 506 36,000  Level Montreal Center
Sun 04:16:01 PM 54.4500 -72.9000 210° Southwest 440 506 36,000  Level Montreal Center
Sun 04:17:01 PM 54.3500 -73.0167 214° Southwest 440 506 36,000  Level Montreal Center
Sun 04:18:01 PM 54.2333 -73.1333 210° Southwest 440 506 36,000  Level Montreal Center
Sun 04:19:01 PM 54.1333 -73.2333 210° Southwest 440 506 36,000  Level Montreal Center
Sun 04:20:01 PM 54.0333 -73.3500 214° Southwest 440 506 36,000  Level Montreal Center
Sun 04:21:01 PM 53.9167 -73.4833 214° Southwest 440 506 36,000  Level Montreal Center
Sun 04:22:01 PM 53.8167 -73.5667 206° Southwest 440 506 36,000  Level Montreal Center
Sun 04:23:01 PM 53.7167 -73.6833 215° Southwest 440 506 36,000  Level Montreal Center
Sun 04:24:01 PM 53.5833 -73.7833 204° Southwest 450 518 36,000  Level Montreal Center
Sun 04:25:01 PM 53.4833 -73.9000 215° Southwest 440 506 36,000  Level Montreal Center
Sun 04:26:01 PM 53.3667 -73.9833 203° Southwest 450 518 36,000  Level Montreal Center
Sun 04:27:01 PM 53.2500 -74.0833 207° Southwest 440 506 36,000  Level Montreal Center
Sun 04:28:01 PM 53.1500 -74.1667 207° Southwest 440 506 36,000  Level Montreal Center
Sun 04:29:01 PM 53.0333 -74.2500 203° Southwest 440 506 36,000  Level Montreal Center
Sun 04:30:01 PM 52.9500 -74.3500 216° Southwest 440 506 36,000  Level Montreal Center
Sun 04:31:01 PM 52.8333 -74.4333 203° Southwest 440 506 36,000  Level Montreal Center
Sun 04:32:01 PM 52.7167 -74.5167 203° Southwest 430 495 36,000  Level Montreal Center
Sun 04:33:01 PM 52.6167 -74.6000 207° Southwest 430 495 36,000  Level Montreal Center
Sun 04:34:01 PM 52.4833 -74.7000 205° Southwest 440 506 36,000  Level Montreal Center
Sun 04:35:01 PM 52.3833 -74.7833 207° Southwest 440 506 36,000  Level Montreal Center
Sun 04:36:01 PM 52.2667 -74.8667 204° Southwest 410 472 36,000  Level Montreal Center
Sun 04:37:01 PM 52.1667 -74.9500 207° Southwest 440 506 36,000  Level Montreal Center
Sun 04:38:01 PM 52.0500 -75.0667 212° Southwest 430 495 36,000  Level Montreal Center
Sun 04:39:01 PM 51.9333 -75.1500 204° Southwest 450 518 36,000  Level Montreal Center
Sun 04:40:01 PM 51.8333 -75.2333 207° Southwest 440 506 36,000  Level Montreal Center
Sun 04:41:01 PM 51.7167 -75.3167 204° Southwest 430 495 36,000  Level Montreal Center
Sun 04:42:01 PM 51.6000 -75.4000 204° Southwest 440 506 36,000  Level Montreal Center
Sun 04:43:01 PM 51.4833 -75.4833 204° Southwest 430 495 36,000  Level Montreal Center
Sun 04:44:01 PM 51.3833 -75.5667 207° Southwest 430 495 36,000  Level Montreal Center
Sun 04:45:01 PM 51.2833 -75.6500 208° Southwest 430 495 36,000  Level Montreal Center
Sun 04:46:01 PM 51.1667 -75.7167 200° South 430 495 36,000  Level Montreal Center
Sun 04:47:01 PM 51.0667 -75.8000 208° Southwest 430 495 36,000  Level Montreal Center
Sun 04:48:01 PM 50.9500 -75.8833 204° Southwest 430 495 36,000  Level Montreal Center
Sun 04:49:01 PM 50.8500 -75.9667 208° Southwest 440 506 36,000  Level Montreal Center
Sun 04:50:01 PM 50.7333 -76.0500 204° Southwest 430 495 36,000  Level Montreal Center
Sun 04:51:01 PM 50.6167 -76.1167 200° South 440 506 36,000  Level Montreal Center
Sun 04:52:01 PM 50.5167 -76.2000 208° Southwest 430 495 36,000  Level Montreal Center
Sun 04:53:01 PM 50.4000 -76.2833 204° Southwest 430 495 36,000  Level Montreal Center
Sun 04:54:01 PM 50.3000 -76.3667 208° Southwest 430 495 36,000  Level Montreal Center
Sun 04:55:01 PM 50.1833 -76.4333 200° South 430 495 36,000  Level Montreal Center
Sun 04:56:01 PM 50.0667 -76.5167 205° Southwest 430 495 36,000  Level Montreal Center
Sun 04:57:01 PM 49.9500 -76.6000 205° Southwest 430 495 36,000  Level Montreal Center
Sun 04:58:01 PM 49.8500 -76.6667 203° Southwest 430 495 36,000  Level Montreal Center
Sun 04:59:01 PM 49.7333 -76.7667 209° Southwest 430 495 36,000  Level Montreal Center
Sun 05:00:01 PM 49.6333 -76.8167 198° South 440 506 36,000  Level Montreal Center
Sun 05:01:01 PM 49.5167 -76.9167 209° Southwest 410 472 36,000  Level Montreal Center
Sun 05:02:00 PM 49.4167 -76.9667 198° South 440 506 36,000  Level Montreal Center
Sun 05:03:00 PM 49.3000 -77.0500 205° Southwest 440 506 36,000  Level Montreal Center
Sun 05:04:00 PM 49.2000 -77.1500 213° Southwest 420 483 36,000  Level Montreal Center
Sun 05:05:00 PM 49.1000 -77.2000 198° South 430 495 36,000  Level Montreal Center
Sun 05:06:00 PM 48.9833 -77.2667 201° Southwest 420 483 36,000  Level Montreal Center
Sun 05:07:00 PM 48.8667 -77.3500 205° Southwest 420 483 36,000  Level Montreal Center
Sun 05:08:00 PM 48.7500 -77.4500 209° Southwest 420 483 36,000  Level Montreal Center
Sun 05:09:00 PM 48.6500 -77.5000 198° South 420 483 36,000  Level Montreal Center
Sun 05:10:00 PM 48.5500 -77.5667 204° Southwest 420 483 36,000  Level Montreal Center
Sun 05:11:00 PM 48.4500 -77.6333 204° Southwest 420 483 36,000  Level Montreal Center
Sun 05:12:00 PM 48.3333 -77.7167 205° Southwest 420 483 36,000  Level Montreal Center
Sun 05:13:00 PM 48.2333 -77.7833 204° Southwest 420 483 36,000  Level Montreal Center
Sun 05:14:00 PM 48.1167 -77.8500 201° Southwest 430 495 36,000  Level Montreal Center
Sun 05:15:00 PM 48.0167 -77.9333 209° Southwest 430 495 36,000  Level Montreal Center
Sun 05:16:00 PM 47.8833 -78.0000 199° South 430 495 36,000  Level Montreal Center
Sun 05:17:00 PM 47.7667 -78.0667 201° Southwest 430 495 36,000  Level Montreal Center
Sun 05:18:00 PM 47.6667 -78.1167 199° South 430 495 36,000  Level Montreal Center
Sun 05:19:00 PM 47.5500 -78.1833 201° Southwest 430 495 36,000  Level Montreal Center
Sun 05:20:00 PM 47.4500 -78.2500 204° Southwest 420 483 36,000  Level Montreal Center
Sun 05:24:25 PM 46.9667 -78.4833 201° Southwest 420 483 36,000  Level Toronto Center
Sun 05:25:00 PM 46.8833 -78.5500 209° Southwest 420 483 36,000  Level Montreal Center
Sun 05:26:00 PM 46.7833 -78.6167 205° Southwest 420 483 36,000  Level Montreal Center
Sun 05:27:00 PM 46.6833 -78.6833 205° Southwest 420 483 36,000  Level Montreal Center
Sun 05:28:00 PM 46.7697 -78.6098 201° Southwest  Level FlightAware Approximate
Sun 05:28:00 PM 46.5667 -78.7500 201° Southwest 420 483 36,000  Level Montreal Center
Sun 05:29:00 PM 46.6850 -78.6561 201° Southwest  Level FlightAware Approximate
Sun 05:29:00 PM 46.4667 -78.8000 199° South 420 483 36,000  Level Montreal Center
Sun 05:30:00 PM 46.5898 -78.7087 201° Southwest  Level FlightAware Approximate
Sun 05:30:00 PM 46.3500 -78.8667 202° Southwest 420 483 36,000  Level Montreal Center
Sun 05:31:00 PM 46.2333 -78.9333 202° Southwest 420 483 36,000  Level Montreal Center
Sun 05:32:00 PM 46.1167 -78.9833 197° South 410 472 36,000  Level Montreal Center
Sun 05:37:47 PM 45.5142 -79.3076 197° South 415 478 36,000  Level FlightAware ADS-B (CYKF)
Sun 05:38:36 PM 45.4210 -79.3568 200° South 412 474 36,000  Level FlightAware ADS-B (CYKF)
Sun 05:38:44 PM 45.4058 -79.3648 200° South 414 476 36,000  Level FlightAware ADS-B
Sun 05:39:15 PM 45.3525 -79.3930 200° South 412 474 36,000  Level FlightAware ADS-B (CYKF)
Sun 05:39:52 PM 45.2931 -79.4243 200° South 412 474 36,000  Level FlightAware ADS-B (CYKF)
Sun 05:40:38 PM 45.2039 -79.4711 200° South 414 476 36,000  Level FlightAware ADS-B (CYKF)
Sun 05:41:18 PM 45.1330 -79.5081 200° South 416 479 36,000  Level FlightAware ADS-B (CYKF)
Sun 05:41:31 PM 45.1102 -79.5201 200° South 410 472 36,000  Level FlightAware ADS-B
Sun 05:42:11 PM 45.0345 -79.5596 200° South 411 473 36,000  Level FlightAware ADS-B
Sun 05:42:56 PM 44.9723 -79.5919 200° South 422 486 36,000  Level FlightAware ADS-B (CYKF)
Sun 05:43:33 PM 44.9723 -79.5919 200° South 420 483 36,000  Level FlightAware ADS-B (CYKF)
Sun 05:47:16 PM 44.4909 -79.8744 203° Southwest 411 473 36,000  Level FlightAware ADS-B (CYKF)
Sun 05:47:47 PM 44.4413 -79.9200 213° Southwest 413 475 36,000  Level FlightAware ADS-B (CYKF)
Sun 05:48:35 PM 44.3650 -79.9886 213° Southwest 408 470 36,000  Level FlightAware ADS-B (CYKF)
Sun 05:49:16 PM 44.3008 -80.0463 213° Southwest 404 465 36,000  Level FlightAware ADS-B (CYKF)
Sun 05:49:56 PM 44.2462 -80.0952 213° Southwest 403 464 36,000  Level FlightAware ADS-B (CYKF)
Sun 05:50:38 PM 44.2081 -80.1292 213° Southwest 400 460 36,000  Level FlightAware ADS-B (CYKF)
Sun 05:51:38 PM 44.0815 -80.2417 213° Southwest 399 459 36,000  Level FlightAware ADS-B (CYKF)
Sun 05:52:16 PM 44.0195 -80.2967 213° Southwest 399 459 36,000  Level FlightAware ADS-B (CYKF)
Sun 05:52:55 PM 43.9607 -80.3489 213° Southwest 401 461 36,000  Level FlightAware ADS-B (CYKF)
Sun 05:53:37 PM 43.9002 -80.4022 212° Southwest 398 458 36,000  Level FlightAware ADS-B (CYKF)
Sun 05:54:18 PM 43.8445 -80.4511 212° Southwest 397 457 36,000  Level FlightAware ADS-B (CYKF)
Sun 05:54:31 PM 43.8112 -80.4803 212° Southwest 397 457 36,000  Level FlightAware ADS-B
Sun 05:55:18 PM 43.7380 -80.5446 212° Southwest 397 457 36,000  Level FlightAware ADS-B (CYKF)
Sun 05:55:51 PM 43.6867 -80.5895 212° Southwest 393 452 36,000  Level FlightAware ADS-B (CYKF)
Sun 05:56:37 PM 43.6165 -80.6507 212° Southwest 391 450 36,000  Level FlightAware ADS-B (CYKF)
Sun 05:57:57 PM 43.4943 -80.7570 212° Southwest 390 449 36,000  Level FlightAware ADS-B (CYKF)
Sun 05:58:37 PM 43.4331 -80.8099 212° Southwest 390 449 36,000  Level FlightAware ADS-B (CYKF)
Sun 05:59:37 PM 43.3425 -80.8881 212° Southwest 386 444 36,000  Level FlightAware ADS-B (CYKF)
Sun 06:00:18 PM 43.2807 -80.9412 212° Southwest 385 443 36,000  Level FlightAware ADS-B (CYKF)
Sun 06:00:58 PM 43.2209 -80.9925 212° Southwest 383 441 36,000  Level FlightAware ADS-B (CYKF)
Sun 06:01:38 PM 43.1641 -81.0413 212° Southwest 381 438 36,000  Level FlightAware ADS-B (CYKF)
Sun 06:02:17 PM 43.1042 -81.0925 212° Southwest 382 440 36,000  Level FlightAware ADS-B (CYKF)
Sun 06:02:58 PM 43.0415 -81.1451 212° Southwest 385 443 36,000  Level FlightAware ADS-B (CYKF)
Sun 06:03:37 PM 42.9761 -81.1863 205° Southwest 391 450 36,000  Level FlightAware ADS-B (CYKF)
Sun 06:04:18 PM 42.9096 -81.2279 205° Southwest 390 449 36,000  Level FlightAware ADS-B (CYKF)
Sun 06:04:57 PM 42.8491 -81.2657 205° Southwest 387 445 36,000  Level FlightAware ADS-B (CYKF)
Sun 06:05:37 PM 42.7811 -81.3077 204° Southwest 385 443 36,000  Level FlightAware ADS-B (CYKF)
Sun 06:06:18 PM 42.7151 -81.3483 204° Southwest 389 448 36,000  Level FlightAware ADS-B (CYKF)
Sun 06:06:58 PM 42.6525 -81.3865 204° Southwest 381 438 36,000  Level FlightAware ADS-B (CYKF)
Sun 06:09:13 PM 42.4439 -81.5137 204° Southwest 363 418 36,000  Level FlightAware ADS-B (CYKF)
Sun 06:09:45 PM 42.4011 -81.5400 202° Southwest 363 418 36,000  Level Cleveland Center
Sun 06:09:55 PM 42.3766 -81.5546 204° Southwest 363 418 36,000  Level FlightAware ADS-B (CYKF)
Sun 06:10:47 PM 42.3092 -81.5961 204° Southwest 363 418 36,000  Level Cleveland Center
Sun 06:10:56 PM 42.2831 -81.6113 204° Southwest 363 418 36,000  Level FlightAware ADS-B (CYKF)
Sun 06:11:37 PM 42.2210 -81.6489 204° Southwest 363 418 36,000  Level FlightAware ADS-B (CYKF)
Sun 06:11:49 PM 42.2158 -81.6528 204° Southwest 363 418 36,000  Level Cleveland Center
Sun 06:12:52 PM 42.1228 -81.7094 204° Southwest 363 418 36,000  Level Cleveland Center
Sun 06:13:54 PM 42.0153 -81.7728 204° Southwest 362 417 36,000  Level Cleveland Center
Sun 06:14:56 PM 41.9250 -81.8269 204° Southwest 354 407 36,000  Level Cleveland Center
Sun 06:15:00 PM 41.9391 -81.8044 202° Southwest  Level FlightAware Approximate
Sun 06:15:58 PM 41.8356 -81.8792 204° Southwest 349 402 36,000  Level Cleveland Center
Sun 06:17:00 PM 41.7453 -81.9339 204° Southwest 351 404 36,000  Level Cleveland Center
Sun 06:18:02 PM 41.6494 -81.9903 204° Southwest 372 428 36,000  Level Cleveland Center
Sun 06:19:04 PM 41.5542 -82.0461 204° Southwest 373 429 36,000  Level Cleveland Center
Sun 06:20:06 PM 41.4439 -82.1114 204° Southwest 373 429 36,000  Level Cleveland Center
Sun 06:21:08 PM 41.3464 -82.1658 203° Southwest 373 429 36,000  Level Cleveland Center
Sun 06:22:10 PM 41.2403 -82.2028 195° South 389 448 36,000  Level Cleveland Center
Sun 06:23:12 PM 41.1356 -82.2414 196° South 391 450 36,000  Level Cleveland Center
Sun 06:24:14 PM 41.0281 -82.2797 195° South 392 451 36,000  Level Cleveland Center
Sun 06:25:16 PM 40.9025 -82.3242 195° South 395 455 36,000  Level Cleveland Center
Sun 06:26:19 PM 40.7944 -82.3622 195° South 395 455 36,000  Level Cleveland Center
Sun 06:27:21 PM 40.6858 -82.4006 195° South 398 458 36,000  Level Cleveland Center
Sun 06:28:23 PM 40.5789 -82.4383 195° South 398 458 36,000  Level Cleveland Center
Sun 06:33:16 PM 40.0361 -82.5956 195° South 419 482 36,000  Level FlightAware ADS-B
Sun 06:34:36 PM 39.8892 -82.6062 183° South 421 484 36,000  Level FlightAware ADS-B
Sun 06:35:35 PM 39.7724 -82.6141 183° South 419 482 36,000  Level FlightAware ADS-B
Sun 06:36:19 PM 39.6876 -82.6199 183° South 418 481 36,000  Level FlightAware ADS-B
Sun 06:37:03 PM 39.5972 -82.6260 183° South 416 479 36,000  Level FlightAware ADS-B
Sun 06:37:35 PM 39.5355 -82.6302 183° South 415 478 36,000  Level FlightAware ADS-B
Sun 06:38:06 PM 39.4760 -82.6342 183° South 414 476 36,000  Level FlightAware ADS-B
Sun 06:38:49 PM 39.3934 -82.6396 183° South 416 479 36,000  Level FlightAware ADS-B
Sun 06:39:34 PM 39.3083 -82.6452 183° South 418 481 36,000  Level FlightAware ADS-B
Sun 06:40:10 PM 39.2471 -82.6493 183° South 418 481 36,000  Level FlightAware ADS-B
Sun 06:40:40 PM 39.1781 -82.6539 183° South 422 486 36,000  Level FlightAware ADS-B
Sun 06:41:23 PM 39.0942 -82.6596 183° South 423 487 36,000  Level FlightAware ADS-B
Sun 06:41:54 PM 39.0356 -82.6635 183° South 426 490 36,000  Level FlightAware ADS-B
Sun 06:42:36 PM 38.9522 -82.6689 183° South 426 490 36,000  Level FlightAware ADS-B
Sun 06:43:07 PM 38.8915 -82.6728 183° South 423 487 36,000  Level FlightAware ADS-B
Sun 06:43:53 PM 38.8000 -82.6789 183° South 422 486 36,000  Level FlightAware ADS-B
Sun 06:44:24 PM 38.7418 -82.6827 183° South 423 487 36,000  Level FlightAware ADS-B
Sun 06:45:06 PM 38.6587 -82.6882 183° South 425 489 36,000  Level FlightAware ADS-B
Sun 06:46:09 PM 38.5389 -82.6953 183° South 423 487 36,000  Level Indianapolis Center
Sun 06:47:11 PM 38.4194 -82.7033 183° South 428 493 36,000  Level Indianapolis Center
Sun 06:48:13 PM 38.3017 -82.7114 183° South 424 488 36,000  Level Indianapolis Center
Sun 06:49:14 PM 38.1836 -82.7192 183° South 426 490 36,000  Level Indianapolis Center
Sun 06:50:16 PM 38.0817 -82.7739 203° Southwest 402 463 36,000  Level Indianapolis Center
Sun 07:00:32 PM 37.0094 -83.3358 202° Southwest 402 463 36,000  Level Indianapolis Center
Sun 07:01:00 PM 37.1969 -83.2614 202° Southwest  Level FlightAware Approximate
Sun 07:01:34 PM 36.9056 -83.3881 202° Southwest 403 464 36,000  Level Indianapolis Center
Sun 07:02:00 PM 37.1134 -83.3032 202° Southwest  Level FlightAware Approximate
Sun 07:02:35 PM 36.8028 -83.4408 202° Southwest 401 461 36,000  Level Indianapolis Center
Sun 07:03:00 PM 37.0299 -83.3449 202° Southwest  Level FlightAware Approximate
Sun 07:03:37 PM 36.6986 -83.4931 202° Southwest 404 465 36,000  Level Indianapolis Center
Sun 07:04:00 PM 36.9464 -83.3865 202° Southwest  Level FlightAware Approximate
Sun 07:04:38 PM 36.5944 -83.5464 202° Southwest 404 465 36,000  Level Indianapolis Center
Sun 07:05:00 PM 36.8524 -83.4332 202° Southwest  Level FlightAware Approximate
Sun 07:05:40 PM 36.4928 -83.5983 202° Southwest 400 460 36,000  Level Indianapolis Center
Sun 07:06:41 PM 36.3672 -83.6619 202° Southwest 403 464 36,000  Level Indianapolis Center
Sun 07:07:43 PM 36.2622 -83.7144 202° Southwest 405 466 36,000  Level Indianapolis Center
Sun 07:08:44 PM 36.1572 -83.7667 202° Southwest 405 466 36,000  Level Indianapolis Center
Sun 07:09:42 PM 36.0561 -83.8203 203° Southwest 408 470 36,000  Level Atlanta Center
Sun 07:10:42 PM 35.9517 -83.8719 202° Southwest 408 470 36,000  Level Atlanta Center
Sun 07:11:42 PM 35.8392 -83.9106 196° South 413 475 36,000  Level Atlanta Center
Sun 07:16:13 PM 35.2216 -84.0601 196° South 425 489 36,000  Level FlightAware ADS-B (KDZJ)
Sun 07:16:51 PM 35.1477 -84.0778 191° South 426 490 36,000  Level FlightAware ADS-B (KDZJ)
Sun 07:17:40 PM 35.0536 -84.1004 191° South 426 490 36,000  Level FlightAware ADS-B (KDZJ)
Sun 07:18:20 PM 34.9754 -84.1190 191° South 427 491 36,000  Level FlightAware ADS-B (KDZJ)
Sun 07:19:01 PM 34.8970 -84.1378 191° South 425 489 36,000  Level FlightAware ADS-B (KDZJ)
Sun 07:19:40 PM 34.8209 -84.1559 191° South 425 489 36,000  Level FlightAware ADS-B (KDZJ)
Sun 07:20:11 PM 34.7608 -84.1702 191° South 424 488 36,000  Level FlightAware ADS-B (KDZJ)
Sun 07:20:43 PM 34.7001 -84.1846 191° South 414 476 36,000 91 Level FlightAware ADS-B (KDZJ)
Sun 07:21:17 PM 34.6354 -84.1999 191° South 414 476 36,100 441 Climbing FlightAware ADS-B (KDZJ)
Sun 07:21:51 PM 34.5691 -84.2155 191° South 427 491 36,500 643 Climbing FlightAware ADS-B (KDZJ)
Sun 07:22:41 PM 34.4711 -84.2387 191° South 429 494 37,000 337 Climbing FlightAware ADS-B (KDZJ)
Sun 07:23:20 PM 34.3927 -84.2570 191° South 427 491 37,000  Level FlightAware ADS-B (KDZJ)
Sun 07:24:01 PM 34.3128 -84.2758 191° South 426 490 37,000  Level FlightAware ADS-B (KDZJ)
Sun 07:24:41 PM 34.2345 -84.2943 191° South 426 490 37,000  Level FlightAware ADS-B (KDZJ)
Sun 07:25:20 PM 34.1568 -84.3124 191° South 426 490 37,000  Level FlightAware ADS-B (KDZJ)
Sun 07:26:01 PM 34.0764 -84.3313 191° South 426 490 37,000  Level FlightAware ADS-B (KDZJ)
Sun 07:26:40 PM 33.9994 -84.3492 191° South 427 491 37,000  Level FlightAware ADS-B (KDZJ)
Sun 07:29:42 PM 33.7519 -84.4111 179° South 430 495 37,000  Level Atlanta Center
Sun 07:30:42 PM 33.6328 -84.4331 189° South 435 501 37,000  Level Atlanta Center
Sun 07:31:42 PM 33.5078 -84.4350 181° South 446 513 37,000  Level Atlanta Center
Sun 07:32:42 PM 33.3825 -84.4319 179° South 451 519 37,000  Level Atlanta Center
Sun 07:33:00 PM 33.4369 -84.4282 179° South  Level FlightAware Approximate
Sun 07:33:42 PM 33.2572 -84.4289 179° South 445 512 37,000  Level Atlanta Center
Sun 07:34:00 PM 33.3471 -84.4256 179° South  Level FlightAware Approximate
Sun 07:34:42 PM 33.1319 -84.4283 180° South 445 512 37,000  Level Atlanta Center
Sun 07:35:00 PM 33.2312 -84.4223 179° South  Level FlightAware Approximate
Sun 07:35:42 PM 32.9983 -84.4253 179° South 450 518 37,000  Level Atlanta Center
Sun 07:36:42 PM 32.8689 -84.4247 180° South 455 524 37,000  Level Atlanta Center
Sun 07:37:42 PM 32.7583 -84.4192 178° South 455 524 37,000  Level Atlanta Center
Sun 07:38:42 PM 32.6353 -84.4161 179° South 450 518 37,000  Level Atlanta Center
Sun 07:39:42 PM 32.5078 -84.4133 179° South 450 518 37,000  Level Atlanta Center
Sun 07:40:42 PM 32.3828 -84.4128 180° South 456 525 37,000  Level Atlanta Center
Sun 07:41:42 PM 32.2594 -84.4097 179° South 456 525 37,000  Level Atlanta Center
Sun 07:43:41 PM 32.0092 -84.4042 179° South 455 524 37,000  Level Jacksonville Center
Sun 07:44:41 PM 31.8800 -84.4022 179° South 460 529 37,000  Level Jacksonville Center
Sun 07:45:41 PM 31.7525 -84.3975 178° South 460 529 37,000  Level Jacksonville Center
Sun 07:46:41 PM 31.6272 -84.3956 179° South 460 529 37,000  Level Jacksonville Center
Sun 07:51:54 PM 30.9538 -84.3817 179° South 455 524 37,000  Level FlightAware ADS-B
Sun 07:52:28 PM 30.8802 -84.3803 179° South 456 525 37,000  Level FlightAware ADS-B (KONZ)
Sun 07:53:13 PM 30.7846 -84.3785 179° South 456 525 37,000  Level FlightAware ADS-B
Sun 07:53:54 PM 30.6982 -84.3761 179° South 458 527 37,000  Level FlightAware ADS-B
Sun 07:54:34 PM 30.6158 -84.3641 173° South 469 540 37,000  Level FlightAware ADS-B
Sun 07:55:14 PM 30.5328 -84.3397 166° South 481 554 37,000  Level FlightAware ADS-B
Sun 07:55:53 PM 30.4462 -84.2995 158° South 493 567 37,000  Level FlightAware ADS-B
Sun 07:56:33 PM 30.3645 -84.2477 151° Southeast 499 574 37,000  Level FlightAware ADS-B
Sun 07:57:14 PM 30.2817 -84.1938 151° Southeast 498 573 37,000  Level FlightAware ADS-B
Sun 07:57:53 PM 30.2045 -84.1436 151° Southeast 499 574 37,000  Level FlightAware ADS-B
Sun 07:58:53 PM 30.0821 -84.0640 151° Southeast 500 575 37,000  Level FlightAware ADS-B (KONZ)
Sun 07:59:34 PM 30.0001 -84.0107 151° Southeast 498 573 37,000  Level FlightAware ADS-B (KONZ)
Sun 08:00:10 PM 29.9266 -83.9631 151° Southeast 497 572 37,000  Level FlightAware ADS-B (KONZ)
Sun 08:00:47 PM 29.9026 -83.9475 151° Southeast 498 573 37,000  Level FlightAware ADS-B (KONZ)
Sun 08:01:41 PM 29.7514 -83.8494 151° Southeast 497 572 37,000  Level Jacksonville Center
Sun 08:02:41 PM 29.6289 -83.7742 152° Southeast 497 572 37,000  Level Jacksonville Center
Sun 08:03:41 PM 29.5186 -83.7039 151° Southeast 497 572 37,000  Level Jacksonville Center
Sun 08:04:41 PM 29.3958 -83.6267 151° Southeast 497 572 37,000  Level Jacksonville Center
Sun 08:10:51 PM 28.6302 -83.1352 151° Southeast 501 577 37,000  Level FlightAware ADS-B
Sun 08:11:38 PM 28.5344 -83.0750 151° Southeast 502 578 37,000  Level FlightAware ADS-B
Sun 08:12:13 PM 28.4620 -83.0295 151° Southeast 502 578 37,000  Level FlightAware ADS-B
Sun 08:12:48 PM 28.3910 -82.9851 151° Southeast 500 575 37,000  Level FlightAware ADS-B
Sun 08:13:56 PM 28.2602 -82.9034 151° Southeast 502 578 37,000  Level FlightAware ADS-B
Sun 08:14:37 PM 28.2019 -82.8670 151° Southeast 503 579 37,000  Level FlightAware ADS-B
Sun 08:15:19 PM 28.0856 -82.7946 151° Southeast 504 580 37,000  Level FlightAware ADS-B
Sun 08:16:17 PM 27.9866 -82.7331 151° Southeast 504 580 37,000  Level FlightAware ADS-B
Sun 08:16:54 PM 27.8911 -82.6739 151° Southeast 504 580 37,000  Level FlightAware ADS-B
Sun 08:17:49 PM 27.7800 -82.5993 149° Southeast 506 582 37,000  Level FlightAware ADS-B
Sun 08:18:29 PM 27.6990 -82.5448 149° Southeast 506 582 37,000  Level FlightAware ADS-B
Sun 08:19:07 PM 27.6276 -82.4973 149° Southeast 506 582 37,000  Level FlightAware ADS-B
Sun 08:20:05 PM 27.5092 -82.4186 149° Southeast 504 580 37,000  Level FlightAware ADS-B
Sun 08:20:48 PM 27.4195 -82.3592 150° Southeast 504 580 37,000  Level FlightAware ADS-B
Sun 08:21:31 PM 27.3371 -82.3047 150° Southeast 505 581 37,000  Level FlightAware ADS-B
Sun 08:22:11 PM 27.2523 -82.2487 150° Southeast 506 582 37,000  Level FlightAware ADS-B
Sun 08:22:48 PM 27.1868 -82.2055 150° Southeast 507 583 37,000  Level FlightAware ADS-B
Sun 08:23:30 PM 27.0927 -82.1436 150° Southeast 506 582 37,000  Level FlightAware ADS-B
Sun 08:24:50 PM 26.9334 -82.0389 150° Southeast 503 579 37,000  Level FlightAware ADS-B
Sun 08:25:30 PM 26.8530 -81.9863 150° Southeast 503 579 37,000  Level FlightAware ADS-B
Sun 08:26:09 PM 26.7753 -81.9355 150° Southeast 504 580 37,000  Level FlightAware ADS-B
Sun 08:26:52 PM 26.6868 -81.8778 150° Southeast 504 580 37,000  Level FlightAware ADS-B
Sun 08:27:32 PM 26.6040 -81.8238 150° Southeast 506 582 37,000  Level FlightAware ADS-B
Sun 08:28:13 PM 26.5210 -81.7765 153° Southeast 498 573 37,000  Level FlightAware ADS-B
Sun 08:28:48 PM 26.4462 -81.7458 160° South 493 567 37,000  Level FlightAware ADS-B
Sun 08:29:32 PM 26.3493 -81.7077 161° South 497 572 37,000  Level FlightAware ADS-B
Sun 08:30:13 PM 26.2993 -81.6942 166° South 463 533 37,000  Level FlightAware ADS-B
Sun 08:30:33 PM 26.2186 -81.7029 186° South 447 514 37,000  Level FlightAware ADS-B
Sun 08:31:13 PM 26.1419 -81.7319 199° South 448 516 37,000  Level FlightAware ADS-B
Sun 08:31:52 PM 26.0636 -81.7609 198° South 450 518 37,000  Level FlightAware ADS-B
Sun 08:32:32 PM 25.9877 -81.7891 199° South 449 517 37,000  Level FlightAware ADS-B
Sun 08:32:53 PM 25.9614 -81.8014 208° Southwest 452 520 37,000  Level Miami Center
Sun 08:33:08 PM 25.9129 -81.8170 199° South 448 516 37,000  Level FlightAware ADS-B
Sun 08:33:53 PM 25.8472 -81.8428 198° South 452 520 37,000  Level Miami Center
Sun 08:34:13 PM 25.7891 -81.8632 199° South 447 514 37,000  Level FlightAware ADS-B
Sun 08:34:51 PM 25.7125 -81.8916 199° South 447 514 37,000  Level FlightAware ADS-B
Sun 08:34:53 PM 25.7267 -81.8886 199° South 452 520 37,000  Level Miami Center
Sun 08:35:53 PM 25.6103 -81.9322 199° South 452 520 37,000  Level Miami Center
Sun 08:36:53 PM 25.4939 -81.9756 199° South 447 514 37,000  Level Miami Center
Sun 08:37:53 PM 25.3733 -82.0186 198° South 452 520 37,000  Level Miami Center
Sun 08:38:00 PM 25.4327 -82.0579 208° Southwest  Level FlightAware Approximate
Sun 08:38:53 PM 25.2569 -82.0619 199° South 447 514 37,000  Level Miami Center
Sun 08:39:53 PM 25.1408 -82.1053 199° South 447 514 37,000  Level Miami Center
Sun 08:40:53 PM 25.0244 -82.1483 199° South 447 514 37,000 -200 Level Miami Center
Sun 08:41:53 PM 24.9058 -82.1914 198° South 447 514 36,600 -900 Descending Miami Center
Sun 08:42:53 PM 24.7894 -82.2342 198° South 447 514 35,200 -1,400 Descending Miami Center
Sun 08:44:00 PM 24.6912 -82.2136 169° South  Level FlightAware Approximate
Sun 08:51:00 PM 24.0676 -82.2858 193° South  Level Estimated
Sun 08:52:00 PM 23.9785 -82.2961 197° South  Level Estimated
Sun 08:53:00 PM 23.8894 -82.3063 193° South  Level Estimated
Sun 08:54:00 PM 23.8028 -82.3315 195° South  Level FlightAware Approximate
Sun 08:55:00 PM 23.7162 -82.3567 195° South  Level FlightAware Approximate
Sun 08:56:00 PM 23.6296 -82.3818 195° South  Level FlightAware Approximate
Sun 08:57:00 PM 23.5401 -82.3856 189° South  Level Estimated
Sun 08:58:00 PM 23.4431 -82.4151 196° South  Level FlightAware Approximate
Sun 08:59:00 PM 23.3424 -82.4138 175° South  Level Estimated
Sun 09:00:00 PM 23.2417 -82.4161 181° South  Level FlightAware Approximate
Sun 09:01:00 PM 23.1410 -82.4133 170° South  Level Estimated
Sun 09:02:00 PM 23.0403 -82.4105 180° South  Level Estimated
Sun 09:03:00 PM 22.9891 -82.4091 180° South  Level Estimated
Sun 09:04:00 PM 22.9891 -82.4091 180° South  Level Estimated
Sun 09:05:00 PM 22.9891 -82.4091 180° South  Level Estimated
Sun 09:06:00 PM 22.9891 -82.4091 180° South  Level Estimated
Sun 09:07:00 PM 22.9891 -82.4091 180° South  Level Estimated
Sun 09:08:00 PM 22.9891 -82.4091 180° South  Level Estimated
Sun 09:09:00 PM 22.9891 -82.4091 180° South  Level Estimated
Sun 09:10:00 PM 22.9891 -82.4091 180° South  Level Estimated
Sun 09:11:00 PM 22.9891 -82.4091 180° South  Level Estimated
Sun 09:12:00 PM 22.9891 -82.4091 180° South  Level Estimated
Sun 09:13:00 PM 22.9891 -82.4091 180° South  Level Estimated
Sun 09:14:00 PM 22.9891 -82.4091 180° South  Level Estimated
Sun 09:15:00 PM 22.9891 -82.4091 180° South  Level Estimated
Sun 09:16:00 PM 22.9891 -82.4091 180° South  Level Estimated
Sun 09:17:00 PM 22.9891 -82.4091 180° South  Level Estimated
Sun 09:18:00 PM 22.9891 -82.4091 180° South  Level Estimated
Sun 09:19:00 PM 22.9891 -82.4091 180° South  Level Estimated
Sun 09:20:00 PM 22.9891 -82.4091 180° South  Level Estimated
Sun 09:21:00 PM 22.9891 -82.4091 180° South  Level Estimated

Login

Don't have an account? Register now (free) for customized features, flight alerts, and more!